Location: *
(10.4782°N, 67.2163°W)
Time: 00:38:39
(UTC+00:00)

Cosmos 1072 Rocket - Pass Details

Date: 23 May 2024
Orbit: 947 x 1009 km, 82.9° (Epoch: 15 June)

Event Time Altitude Azimuth Distance (km) Brightness Sun altitude
Rises 00:30:05 0° 3° (N) 3,609 7.8 -24.3°
Reaches altitude 10° 00:32:36 10° 7° (N) 2,662 7.0 -24.8°
Enters shadow 00:38:31 60° 83° (E) 1,072 4.4 -26.1°
